"Pseudo-MPEC" for P21JpZh

Created 2023 Sep 27 2:22:16 UT using Find_Orb

Click here for an explanation of pseudo-MPECs

 
 Astrometry: 
     P21JpZh* C2023 09 13Fx,D3AvC?Rf7:/?7R?Sv-(`7Xs41^Zg6AstrometryA27TSgQM@4F52
     P21JpZh  C2023 09 13M]KYVXredacted;0dapU?ii+'$Lry^cclick-lP^?JV7^)heretcF52
     P21JpZh  C2023 09 13=+BMforo]wJVAnaL4tKL7XrhpklM(+0WnMbjexplanationTWM,[F52
     P21JpZh 1C2023 09 18.00458 00 27 34.60 +13 45 22.3    ~9I17 22.0 VXNEOCP033
     P21JpZh 1C2023 09 18.00816 00 27 34.44 +13 45 11.5    ~9I17 22.0 VXNEOCP033
     P21JpZh 1C2023 09 18.01175 00 27 34.27 +13 45 00.7    ~9I17 21.5 VXNEOCP033

Station data:
(033) Karl Schwarzschild Observatory, Tautenburg  (N50.980137 E11.711240)
   Germany.  Observer B. Stecklum. 1.34-m f/3 Schmidt + CCD.
(F52) Pan-STARRS 2, Haleakala  (N20.707382 W156.255910)  US/Hawaii.
   Observers J. Bulger, T. Dukes, T. Lowe, A. Schultz, M. Willman. Measurers
   K. Chambers, S. Chastel, T. de Boer, L. Denneau, J. Fairlamb, H.
   Flewelling, M. Huber, C.-C. Lin, E. Magnier, Y. Ramanjooloo, R. Wainscoat,
   R. Weryk. 1.8-m Ritchey-Chrétien + CCD.

Orbital elements:  P21JpZh
   Perihelion 2023 Jul 12.04528 +/- 0.95 TT =  1:05:11 (JD 2460137.54528)
Epoch 2023 Sep 18.0 TT = JDT 2460205.5   Earth MOID: 0.1850   Ma: 0.0364
M  10.35913879 +/- 4.9              (J2000 ecliptic)             AutoNEOCP
n   0.15244177 +/- 0.0722           Peri.   97.01292 +/- 0.15
a   3.47056391 +/- 1.1              Node   190.11245 +/- 0.29
e   0.7195942 +/- 0.0897            Incl.   14.00529 +/- 1.8
P   6.47                   H 22.32  G  0.15   U 11.0
q 0.97316605 +/- 0.00746    Q 5.96796178 +/- 2.2
From 6 observations 2023 Sept. 13-18; mean residual 0".15
Residuals in arcseconds: 
230913 F52  .04-  .01+    230913 F52  .00   .01+    230918 033  .05+  .01-    
230913 F52  .04+  .02-    230918 033  .34+  .04-    230918 033  .39-  .05+    

Ephemerides (geocentric):
Date (UTC) HH   RA             Dec           delta  r     elong  mag " sig PA
---- --------  ------------   ------------  ------ ------ -----  --- --------
2023 09 27 02  00 22 55.883   +07 06 28.60  .44813 1.4488 173.7 21.8 37.1 122
2023 09 27 03  00 22 54.736   +07 04 54.51  .44850 1.4492 173.7 21.8 37.4 122
2023 09 27 04  00 22 53.591   +07 03 20.57  .44887 1.4495 173.8 21.8 37.6 122
2023 09 27 05  00 22 52.447   +07 01 46.77  .44924 1.4499 173.8 21.8 37.8 123
2023 09 27 06  00 22 51.305   +07 00 13.10  .44961 1.4503 173.9 21.8 38.0 123
2023 09 27 07  00 22 50.164   +06 58 39.58  .44998 1.4507 174.0 21.8 38.3 123
2023 09 27 08  00 22 49.025   +06 57 06.20  .45036 1.4511 174.0 21.8 38.5 123
2023 09 27 09  00 22 47.888   +06 55 32.95  .45073 1.4515 174.1 21.8 38.7 123
2023 09 27 10  00 22 46.752   +06 53 59.84  .45110 1.4519 174.1 21.8 39.0 123
2023 09 27 11  00 22 45.618   +06 52 26.87  .45147 1.4523 174.2 21.8 39.2 123
2023 09 27 12  00 22 44.486   +06 50 54.05  .45184 1.4527 174.2 21.8 39.4 123
2023 09 27 13  00 22 43.355   +06 49 21.35  .45222 1.4530 174.3 21.8 39.6 124
2023 09 27 14  00 22 42.226   +06 47 48.80  .45259 1.4534 174.3 21.8 39.9 124
2023 09 27 15  00 22 41.098   +06 46 16.39  .45296 1.4538 174.4 21.8 40.1 124
2023 09 27 16  00 22 39.972   +06 44 44.11  .45334 1.4542 174.5 21.8 40.3 124
2023 09 27 17  00 22 38.848   +06 43 11.98  .45371 1.4546 174.5 21.8 40.6 124
2023 09 27 18  00 22 37.725   +06 41 39.98  .45408 1.4550 174.6 21.8 40.8 124
2023 09 27 19  00 22 36.604   +06 40 08.12  .45446 1.4554 174.6 21.8 41.0 124
2023 09 27 20  00 22 35.484   +06 38 36.40  .45483 1.4558 174.7 21.8 41.3 124
2023 09 27 21  00 22 34.367   +06 37 04.81  .45521 1.4562 174.7 21.8 41.5 125
2023 09 27 22  00 22 33.251   +06 35 33.37  .45559 1.4566 174.8 21.8 41.8 125
2023 09 27 23  00 22 32.136   +06 34 02.06  .45596 1.4569 174.8 21.8 42.0 125
2023 09 28 00  00 22 31.024   +06 32 30.89  .45634 1.4573 174.9 21.8 42.2 125
2023 09 28 01  00 22 29.912   +06 30 59.86  .45672 1.4577 174.9 21.8 42.5 125
2023 09 28 02  00 22 28.803   +06 29 28.96  .45709 1.4581 175.0 21.8 42.7 125
2023 09 28 03  00 22 27.695   +06 27 58.20  .45747 1.4585 175.0 21.8 42.9 125
2023 09 28 04  00 22 26.589   +06 26 27.58  .45785 1.4589 175.1 21.8 43.2 125
2023 09 28 05  00 22 25.485   +06 24 57.10  .45823 1.4593 175.1 21.8 43.4 126
2023 09 28 06  00 22 24.382   +06 23 26.75  .45861 1.4597 175.2 21.8 43.7 126
2023 09 28 07  00 22 23.281   +06 21 56.54  .45899 1.4601 175.2 21.8 43.9 126
2023 09 28 08  00 22 22.182   +06 20 26.47  .45937 1.4605 175.3 21.8 44.1 126
2023 09 28 09  00 22 21.084   +06 18 56.53  .45975 1.4608 175.3 21.8 44.4 126
2023 09 28 10  00 22 19.989   +06 17 26.73  .46013 1.4612 175.4 21.8 44.6 126
2023 09 28 11  00 22 18.894   +06 15 57.07  .46051 1.4616 175.5 21.8 44.9 126
2023 09 28 12  00 22 17.802   +06 14 27.54  .46089 1.4620 175.5 21.8 45.1 126
2023 09 28 13  00 22 16.711   +06 12 58.15  .46127 1.4624 175.6 21.8 45.3 127
2023 09 28 14  00 22 15.622   +06 11 28.90  .46165 1.4628 175.6 21.8 45.6 127
2023 09 28 15  00 22 14.535   +06 09 59.78  .46203 1.4632 175.7 21.8 45.8 127
2023 09 28 16  00 22 13.449   +06 08 30.80  .46241 1.4636 175.7 21.8 46.1 127
2023 09 28 17  00 22 12.366   +06 07 01.95  .46280 1.4640 175.8 21.8 46.3 127
2023 09 28 18  00 22 11.283   +06 05 33.24  .46318 1.4644 175.8 21.8 46.6 127
2023 09 28 19  00 22 10.203   +06 04 04.67  .46356 1.4648 175.9 21.8 46.8 127
2023 09 28 20  00 22 09.124   +06 02 36.23  .46395 1.4651 175.9 21.8 47.1 128
2023 09 28 21  00 22 08.047   +06 01 07.93  .46433 1.4655 175.9 21.8 47.3 128
2023 09 28 22  00 22 06.972   +05 59 39.76  .46472 1.4659 176.0 21.8 47.6 128
2023 09 28 23  00 22 05.899   +05 58 11.73  .46510 1.4663 176.0 21.8 47.8 128
2023 09 29 00  00 22 04.827   +05 56 43.83  .46549 1.4667 176.1 21.8 48.1 128
2023 09 29 01  00 22 03.757   +05 55 16.07  .46587 1.4671 176.1 21.8 48.3 128